Find Starlink 32041

NORAD ID: 60202 Int'l Des: 2024-124 Owner: SPXS Country: US Constellation: starlink operational
LEOCIRCULAR

Current View

Loading 3D Globe...

About Starlink 32041

Starlink 32041 (NORAD 60202) is a starlink constellation satellite (v2 mini) launched Jul 3, 2024 by SPXS of US. It operates in LEO, CIRCULAR orbit with a mass of 730.00 kg.

About Starlink 32041

Description loading...

Upcoming Passes

Passes for default location (London). Set your location on the main map for personalized predictions.

Altitude History

Loading altitude history...

Two-Line Element Set

1 60202U 24124V 26171.37913382 .00002568 00000-0 94424-4 0 9994
2 60202 53.1592 205.1059 0001263 85.2529 274.8616 15.31721149111227
Epoch: Jun 20, 2026 • Age: 39 hours

Current Status

Altitude 472.3 km
Velocity 7.63 km/s
Sub-Earth Point 33.31°N, 49.97°W
Launch Date Jul 3, 2024
Age 1.9 years
Type internet

Technical Details

Classification Payload
Mass 730.00 kg
Dry Mass 700.00 kg
Total Mass 730.00 kg
Length 0.30 m
Diameter 4.10 m
Span 29.00 m
Shape Box + pan
Manufacturer SPXS
Bus Type Starlink V2M
Phase Status In Orbit
Owner/State SPXS/US

Most Searched